Home   Weather   Brownsville   Past weeks

Flag for USA Past Weather in Brownsville, Texas, USA — Yesterday and Last 2 Weeks

Now
78 °F

Overcast.


Feels Like: 81 °F
Forecast: 75 / 101 °F
Wind: 17 mph from South

Location: Brownsville / South Padre Island International Airport

Current Time: Apr 26, 2017 at 7:17:25 am

Latest Report: Apr 26, 2017 at 5:53 am


Visibility: 10 mi

Pressure: 29.46 "Hg

Humidity: 87%

Dew Point: 74 °F

Location of BrownsvilleLocation

Past Weather in Brownsville — Graph

°F

Brownsville Temperature Yesterday

Maximum temperature yesterday: 90 °F (at 1:53 pm)
Minimum temperature yesterday: 74 °F (at 12:53 am)
Average temperature yesterday: 82 °F

High & Low Weather Summary for the Past Weeks

 TemperatureHumidityPressure
High90 °F (Apr 25, 1:53 pm)96% (Apr 19, 5:18 am)30.18 "Hg (Apr 19, 5:18 am)
Low59 °F (Apr 24, 4:53 am)35% (Apr 23, 3:53 pm)29.46 "Hg (Apr 26, 5:53 am)
Average77 °F73%29.94 "Hg
* Reported Apr 11 5:53 am — Apr 26 5:53 am, Brownsville, Weather by CustomWeather, © 2017

Note: Actual official high and low records may vary slightly from our data, if they occured in-between our weather recording intervals... More about our weather records

Advertising

Brownsville Weather History for the Previous 24 Hours

Scroll right to see more
 ConditionsComfort  
Time TempWeatherWind HumidityBarometerVisibility
5:53 am
Wed, Apr 26
78 °FOvercast.17 mph87%29.46 "Hg10 mi
5:09 am78 °FPassing clouds.20 mph87%29.47 "Hg10 mi
4:53 am78 °FPassing clouds.21 mph84%29.46 "Hg10 mi
4:20 am78 °FPassing clouds.17 mph84%29.48 "Hg10 mi
3:53 am78 °FPassing clouds.20 mph84%29.49 "Hg10 mi
3:19 am79 °FPassing clouds.14 mph82%29.51 "Hg10 mi
2:53 am80 °FOvercast.18 mph79%29.52 "Hg10 mi
1:53 am80 °FOvercast.18 mph79%29.54 "Hg10 mi
12:53 am80 °FOvercast.20 mph79%29.56 "Hg10 mi
11:53 pm
Tue, Apr 25
80 °FOvercast.16 mph79%29.57 "Hg10 mi
10:53 pm80 °FOvercast.17 mph79%29.57 "Hg10 mi
9:53 pm80 °FOvercast.17 mph79%29.55 "Hg10 mi
8:53 pm80 °FOvercast.21 mph79%29.53 "Hg10 mi
7:53 pm81 °FOvercast.21 mph77%29.52 "Hg10 mi
6:53 pm83 °FPartly sunny.21 mph72%29.53 "Hg10 mi
6:15 pm84 °FScattered clouds.23 mph70%29.53 "Hg10 mi
6:03 pm85 °FPartly sunny.24 mph68%29.53 "Hg10 mi
5:53 pm86 °FScattered clouds.22 mph65%29.53 "Hg10 mi
4:53 pm88 °FScattered clouds.24 mph62%29.54 "Hg10 mi
3:53 pm89 °FPassing clouds.24 mph57%29.57 "Hg10 mi
2:53 pm90 °FScattered clouds.23 mph55%29.59 "Hg10 mi
1:53 pm90 °FPassing clouds.26 mph56%29.61 "Hg10 mi
12:53 pm89 °FPartly sunny.24 mph55%29.63 "Hg10 mi
11:53 am86 °FPartly sunny.23 mph63%29.65 "Hg10 mi
10:53 am86 °FScattered clouds.22 mph63%29.67 "Hg10 mi
9:53 am82 °FOvercast.22 mph70%29.69 "Hg10 mi
9:29 am81 °FOvercast.16 mph72%29.69 "Hg10 mi
8:53 am80 °FOvercast.18 mph74%29.68 "Hg10 mi
7:53 am78 °FOvercast.15 mph76%29.66 "Hg10 mi
Weather by CustomWeather, © 2017

See weather overviewHow to use our weather pages